Weather in Rykove

Ukraine / Kherson District     46°19′50″N   34°45′09″E
temp.,
°C
wind,
m/s
gust,
m/s
humid.,
%
clouds,
%
prec.,
mm/h
press.,
hPa
HPBL,
m
13 june, sun
sun1300:00+21wsw3470100 0.1 1011140
03:00+20wnw346927 0.1 101185
06:00+19w34757 0.0 1011119
09:00+23sw44595 0.1 1011680
12:00+25ssw444867 0.0 10101293
15:00+26sse564826 0.0 10101373
18:00+24se66572 0.3 1009882
21:00+21wsw45680 0.3 1009108
14 june, mon
mon1400:00+19wsw46745 0.0 1009184
03:00+18sw34820 0.1 1009123
06:00+19se11795 0.0 1009113
09:00+22se77655 0.0 1010995
12:00+23se78576 0.0 10111030
15:00+24se885496 0.0 10111129
18:00+22e676266 0.4 1011610
21:00+20ene46771 0.4 1010175
15 june, tue
tue1500:00+19ne478259 0.3 1010151
03:00+17ne588279 2.4 1010159
06:00+18ne5107687 0.4 1009201
09:00+24ene71161100 0.5 1009832
12:00+23e81067100 1.1 1009760
15:00+22ne6871100 2.5 1008672
18:00+23se78650 1.7 1007694
21:00+19wsw58790 1.8 1008304
16 june, wed
wed1600:00+17wsw46816 0.0 1009207
03:00+16w3483100 0.0 1009147
06:00+17wnw1179100 0.0 101065
09:00+17ne2284100 1.6 1010241
12:00+17e1187100 1.9 1011251
15:00+18n3479100 5.1 1010390
18:00+20nnw22682 0.0 1010556
21:00+18nnw227859 0.0 101086
17 june, thu
thu1700:00+16nw3486100 0.0 101092
03:00+16wnw33875 0.0 101070
06:00+16nw23854 0.0 101075
09:00+21e446914 0.0 1012597
12:00+23se546036 0.0 1013882
15:00+24se4556100 0.0 1013889
18:00+23e5663100 0.0 1014853
21:00+21e3478100 0.0 1014236